[[{"header":{"parameterUnit":"m.s-1","parameterCategory":1,"la1":30.2991,"la2":30.254,"lo1":-89.0895,"lo2":-89.0444,"dy":0.0017,"dx":0.0017,"nx":28,"ny":28,"refTime":"2025-07-21T21:00:00:Z","depth":0,"parameterNumber":2,"parameterNumberName":"U-component_of_WINDS"},"data":[0,0,0,0,0,0,0,0,0,0,0,0,0,0,0,0,0,0,0,0,0,0,0,0,0,0,0,0,0,0,0,0,0,0,0,0,0,0,0,0,0,0,0,0,0,0,0,0,0,0,0,0,0,0,0,0,0,0,3.3807,3.3807,0,3.3874,3.3874,3.3875,3.3765,3.3761,3.3757,3.3753,3.3829,3.3835,3.384,0,0,0,0,0,0,0,0,0,0,0,0,0,3.3591,3.3596,3.3807,3.3808,3.3808,3.3873,3.3874,3.3875,3.3765,3.3761,3.3756,3.3752,3.3827,3.3834,3.3841,0,0,0,0,0,0,0,0,0,0,0,0,0,3.3675,3.3597,3.3807,3.3761,3.3758,3.3873,3.3874,3.3876,3.3766,3.3761,3.3755,3.375,3.3825,3.3833,3.3841,3.4007,0,0,3.3867,3.3871,0,0,0,0,0,0,0,0,3.367,3.3683,3.3767,3.3764,3.3761,3.3805,3.3826,3.392,3.3768,3.3763,3.3753,3.3747,3.3826,3.3834,3.3859,3.401,3.4013,3.3868,3.3873,3.3876,3.3879,0,0,0,0,0,0,0,3.3664,3.3679,3.3833,3.3768,3.3765,3.374,3.3745,3.3843,3.3826,3.3763,3.3755,3.3764,3.3823,3.3852,3.386,3.4015,3.3867,3.3875,3.388,3.3883,3.4308,3.4314,0,0,0,0,0,0,3.3663,3.3675,3.3831,3.3835,3.37,3.3748,3.3755,3.3797,3.3825,3.3823,3.3769,3.3759,3.384,3.3851,3.3863,3.406,3.3876,3.3884,3.3889,3.4301,3.4309,3.4316,0,0,0,0,0,0,3.3659,3.3678,3.3828,3.3753,3.377,3.3758,3.3806,3.3801,3.3829,3.3829,3.3826,3.3801,3.3836,3.3851,3.3972,3.4061,3.3888,3.3895,3.4294,3.4304,3.4312,3.4455,0,0,0,0,0,0,3.3653,3.3677,3.3738,3.3755,3.3775,3.3935,3.3812,3.3806,3.3843,3.383,3.3858,3.3857,3.3833,3.396,3.398,3.4069,3.3902,3.4286,3.4298,3.4309,3.4443,3.4468,3.4491,0,0,0,0,0,3.3646,3.3777,3.3742,3.3761,3.385,3.394,3.3952,3.3919,3.385,3.3913,3.3913,3.3856,3.4047,3.3973,3.3995,3.4088,3.428,3.4295,3.4309,3.4432,3.4463,3.449,0,0,0,0,0,0,3.3772,3.3778,3.3739,3.3879,3.391,3.3921,3.3999,3.3953,3.4006,3.3992,3.3951,3.3959,3.4089,3.41,3.4018,3.4251,3.4153,3.4172,3.4239,3.4269,3.4293,3.4288,3.3909,0,0,0,0,0,3.3816,3.3886,3.3888,3.4011,3.4029,3.4012,3.4049,3.4022,3.4053,3.4066,3.4075,3.411,3.4178,3.4224,3.4286,3.4443,3.4449,3.4518,3.4542,3.4562,3.458,3.4666,3.4698,3.4362,3.4362,3.4362,0,0,3.3908,3.392,3.3967,3.4037,3.4058,3.4134,3.4023,3.4108,3.4166,3.408,3.4194,3.4203,3.4239,3.4379,3.4442,3.4393,3.4673,3.458,3.4595,3.4603,3.4684,3.4716,3.4744,3.4372,3.437,3.4369,0,0,3.4115,3.413,3.4235,3.4258,3.4289,3.4277,3.4303,3.4322,3.4323,3.4437,3.4375,3.4444,3.4561,3.459,3.462,3.484,3.4791,3.4861,3.4988,3.5073,3.5099,3.5122,3.5204,3.5233,3.4879,3.4879,3.4879,0,3.4226,3.4336,3.4295,3.4385,3.442,3.4343,3.4451,3.4476,3.4528,3.4555,3.4498,3.4645,3.4664,3.4811,3.4865,3.4891,3.4921,3.4859,3.5098,3.5121,3.5142,3.5219,3.525,3.4888,3.4887,3.4886,3.4885,0,3.4473,3.4551,3.4632,3.4683,3.4726,3.4824,3.4801,3.485,3.4819,3.4814,3.4933,3.4952,3.5019,3.5051,3.5022,3.5196,3.5165,3.5104,3.5005,3.5184,3.5256,3.5284,3.49,3.4897,3.4894,3.4892,0,0,3.4763,3.4789,3.482,3.4843,3.4873,3.4933,3.503,3.5092,3.5137,3.5175,3.5258,3.5359,3.5303,3.5338,3.5311,3.5385,3.5562,3.5316,3.5316,3.5363,3.5758,3.5806,3.584,3.5528,3.5534,3.5538,3.5756,0,3.4971,3.5135,3.5101,3.5263,3.5337,3.5265,3.5349,3.5379,3.5377,3.5441,3.5439,3.5513,3.5432,3.5453,3.5523,3.5525,3.5641,3.5509,3.5608,3.5612,3.5603,3.5877,3.5927,3.6132,3.5784,3.5788,3.5792,0,3.5235,3.5282,3.5452,3.5471,3.5501,3.5577,3.5633,3.5694,3.5727,3.572,3.5759,3.5719,3.5818,3.5716,3.5854,3.5765,3.5803,3.5811,3.5818,3.5828,3.5715,3.5898,3.6197,3.6229,3.5835,3.5832,3.5828,0,3.5434,3.5539,3.5654,3.5676,3.5701,3.5757,3.5771,3.5797,3.5838,3.5887,3.5914,3.5975,3.601,3.6059,3.6038,3.5965,3.6181,3.6076,3.6182,3.6183,3.6232,3.623,3.6545,3.6253,3.6253,3.6252,3.6251,0,3.5671,3.5778,3.5744,3.5815,3.5934,3.5895,3.6015,3.602,3.6045,3.6118,3.606,3.6131,3.6097,3.6166,3.615,3.6268,3.6284,3.6284,3.6279,3.6291,3.6291,3.6317,3.6304,3.626,3.6258,3.6257,3.6255,0,3.5914,3.5894,3.6016,3.6029,3.6035,3.6123,3.6136,3.6204,3.6197,3.6291,3.6311,3.6301,3.638,3.6362,3.6449,3.6438,3.6588,3.6564,3.6577,3.6572,3.6679,3.667,3.7024,3.7069,3.6746,3.6749,3.6751,0,3.6068,3.6148,3.617,3.6214,3.6232,3.6303,3.6344,3.6309,3.6355,3.6399,3.6463,3.6535,3.6592,3.6721,3.6724,3.679,3.6769,3.6888,3.6779,3.6789,3.6775,3.6772,3.6781,3.6911,3.6915,3.6918,3.692,0,3.6345,3.6331,3.6391,3.6448,3.6498,3.6542,3.6581,3.6621,3.659,3.6644,3.6723,3.6767,3.6854,3.6929,3.699,3.7007,3.6961,3.6954,3.6983,3.6997,3.7003,3.7004,3.6639,3.6947,3.6944,3.6942,3.6941,3.694,3.655,3.6619,3.6645,3.6715,3.674,3.6778,3.6843,3.6844,3.6907,3.6975,3.6951,3.7042,3.7075,3.7152,3.7176,3.7249,3.7204,3.7245,3.7255,3.7267,3.7281,3.6989,3.7259,3.7259,3.7258,3.7257,3.7257,0,3.6826,3.684,3.6903,3.6959,3.7014,3.6962,3.7002,3.7053,3.7133,3.7166,3.7222,3.7314,3.7386,3.7394,3.7463,3.7519,3.75,3.7539,3.7536,3.7541,3.7315,3.7285,3.7554,3.7554,3.7553,3.7553,3.7553,3.7553,3.6977,3.7092,3.7082,3.721,3.7223,3.7309,3.7338,3.7373,3.74,3.7504,3.7563,3.7566,3.7591,3.766,3.7725,3.7726,3.7756,3.7804,3.7797,3.7586,3.7557,3.7529,3.75,3.7809,3.781,3.8017,3.8019,3.802]},{"header":{"parameterUnit":"m.s-1","parameterCategory":1,"la1":30.2991,"la2":30.254,"lo1":-89.0895,"lo2":-89.0444,"dy":0.0017,"dx":0.0017,"nx":28,"ny":28,"refTime":"2025-07-21T21:00:00:Z","depth":0,"parameterNumber":3,"parameterNumberName":"V-component_of_WINDS"},"data":[0,0,0,0,0,0,0,0,0,0,0,0,0,0,0,0,0,0,0,0,0,0,0,0,0,0,0,0,0,0,0,0,0,0,0,0,0,0,0,0,0,0,0,0,0,0,0,0,0,0,0,0,0,0,0,0,0,0,-0.8661,-0.866,0,-0.8624,-0.8623,-0.8623,-0.8601,-0.8601,-0.8601,-0.8601,-0.8562,-0.8561,-0.8561,0,0,0,0,0,0,0,0,0,0,0,0,0,-0.8714,-0.8713,-0.8661,-0.866,-0.866,-0.8624,-0.8623,-0.8623,-0.8601,-0.8601,-0.8601,-0.8601,-0.8563,-0.8562,-0.856,0,0,0,0,0,0,0,0,0,0,0,0,0,-0.8685,-0.8713,-0.8661,-0.8645,-0.8643,-0.8624,-0.8623,-0.8622,-0.8601,-0.8601,-0.8601,-0.8601,-0.8563,-0.8562,-0.856,-0.8554,0,0,-0.8556,-0.8555,0,0,0,0,0,0,0,0,-0.8687,-0.8683,-0.8648,-0.8646,-0.8644,-0.8617,-0.8628,-0.86,-0.8601,-0.8617,-0.8601,-0.86,-0.8581,-0.8578,-0.8571,-0.8552,-0.8551,-0.8556,-0.8555,-0.8554,-0.8554,0,0,0,0,0,0,0,-0.8689,-0.8685,-0.8646,-0.8647,-0.8645,-0.8639,-0.8635,-0.8622,-0.86,-0.8615,-0.8614,-0.861,-0.8579,-0.8572,-0.857,-0.855,-0.8556,-0.8555,-0.8554,-0.8553,-0.8525,-0.8526,0,0,0,0,0,0,-0.8693,-0.8686,-0.8647,-0.8645,-0.8665,-0.8639,-0.8634,-0.8626,-0.86,-0.8596,-0.861,-0.8609,-0.8575,-0.8572,-0.8568,-0.856,-0.8554,-0.8553,-0.8552,-0.8525,-0.8525,-0.8526,0,0,0,0,0,0,-0.8694,-0.869,-0.8649,-0.8665,-0.866,-0.8638,-0.8629,-0.8625,-0.8618,-0.8596,-0.8592,-0.8607,-0.8575,-0.857,-0.8558,-0.8558,-0.8552,-0.8551,-0.8525,-0.8525,-0.8526,-0.8542,0,0,0,0,0,0,-0.8696,-0.8691,-0.8688,-0.8665,-0.8659,-0.8639,-0.8629,-0.8624,-0.8615,-0.8614,-0.8592,-0.8588,-0.8574,-0.856,-0.8557,-0.8556,-0.855,-0.8525,-0.8525,-0.8525,-0.8542,-0.8543,-0.8544,0,0,0,0,0,-0.8698,-0.8694,-0.8688,-0.8683,-0.8655,-0.8639,-0.8635,-0.8619,-0.8615,-0.8613,-0.8599,-0.8589,-0.8559,-0.8559,-0.8555,-0.8554,-0.8525,-0.8525,-0.8525,-0.8541,-0.8543,-0.8544,0,0,0,0,0,0,-0.8717,-0.8691,-0.8684,-0.8672,-0.8658,-0.8635,-0.8631,-0.8622,-0.8608,-0.8607,-0.8588,-0.8584,-0.8573,-0.8562,-0.8563,-0.8547,-0.8541,-0.854,-0.8554,-0.8556,-0.8557,-0.856,-0.8549,0,0,0,0,0,-0.872,-0.8709,-0.8687,-0.8679,-0.8672,-0.8653,-0.8645,-0.8635,-0.8619,-0.8613,-0.8598,-0.8583,-0.8571,-0.8563,-0.855,-0.854,-0.8535,-0.8538,-0.8539,-0.854,-0.854,-0.8534,-0.8535,-0.8526,-0.8526,-0.8526,0,0,-0.8725,-0.871,-0.8704,-0.8682,-0.867,-0.8659,-0.8648,-0.8637,-0.8629,-0.8611,-0.8598,-0.8587,-0.857,-0.8559,-0.8553,-0.855,-0.8541,-0.8541,-0.8542,-0.854,-0.8535,-0.8536,-0.8536,-0.8527,-0.8526,-0.8526,0,0,-0.873,-0.8717,-0.8709,-0.8697,-0.8679,-0.8666,-0.8665,-0.8644,-0.8635,-0.8623,-0.8609,-0.86,-0.8578,-0.8566,-0.8558,-0.8559,-0.8549,-0.8555,-0.8562,-0.8557,-0.8557,-0.8558,-0.8558,-0.8559,-0.8555,-0.8555,-0.8555,0,-0.8739,-0.8722,-0.8706,-0.8696,-0.8687,-0.8671,-0.8663,-0.8652,-0.8631,-0.8625,-0.8621,-0.8594,-0.8581,-0.8568,-0.8568,-0.8562,-0.8559,-0.8557,-0.8559,-0.8559,-0.8559,-0.8559,-0.856,-0.8556,-0.8556,-0.8556,-0.8556,0,-0.8734,-0.8723,-0.8719,-0.8699,-0.8689,-0.868,-0.8663,-0.8655,-0.8646,-0.8634,-0.8621,-0.8605,-0.8589,-0.8585,-0.8576,-0.8571,-0.8569,-0.8562,-0.8555,-0.8561,-0.8561,-0.8561,-0.8557,-0.8557,-0.8557,-0.8557,0,0,-0.8749,-0.8721,-0.8719,-0.871,-0.8689,-0.868,-0.8671,-0.8655,-0.8649,-0.8635,-0.8627,-0.861,-0.8603,-0.8594,-0.8583,-0.8578,-0.8581,-0.8572,-0.8572,-0.8574,-0.8574,-0.8579,-0.8579,-0.8574,-0.8574,-0.8574,-0.8575,0,-0.875,-0.8732,-0.8718,-0.8705,-0.8695,-0.868,-0.8672,-0.8658,-0.8647,-0.8637,-0.8625,-0.8613,-0.8606,-0.86,-0.8595,-0.8581,-0.858,-0.8581,-0.8566,-0.8566,-0.8571,-0.8579,-0.8584,-0.8585,-0.8575,-0.8575,-0.8575,0,-0.8749,-0.8736,-0.8722,-0.8703,-0.8698,-0.8691,-0.8676,-0.8666,-0.8651,-0.8643,-0.8632,-0.8621,-0.8611,-0.8606,-0.8592,-0.8593,-0.8586,-0.8579,-0.8578,-0.8576,-0.857,-0.8576,-0.8585,-0.8586,-0.8575,-0.8575,-0.8575,0,-0.8761,-0.874,-0.8729,-0.8721,-0.8699,-0.8694,-0.8684,-0.8669,-0.8661,-0.8648,-0.8642,-0.8628,-0.862,-0.861,-0.8596,-0.8593,-0.8583,-0.8577,-0.8576,-0.8577,-0.8574,-0.8574,-0.8582,-0.8571,-0.8571,-0.8571,-0.8571,0,-0.8763,-0.8756,-0.8734,-0.8727,-0.8718,-0.8702,-0.8694,-0.8683,-0.8669,-0.8661,-0.8647,-0.8639,-0.8621,-0.8611,-0.86,-0.859,-0.8586,-0.858,-0.8577,-0.8581,-0.8582,-0.8576,-0.8575,-0.8571,-0.8571,-0.8571,-0.8571,0,-0.8774,-0.876,-0.8747,-0.8727,-0.8721,-0.8716,-0.8698,-0.8692,-0.868,-0.8669,-0.8666,-0.8648,-0.8635,-0.862,-0.8603,-0.8595,-0.8586,-0.8582,-0.8592,-0.859,-0.859,-0.859,-0.8594,-0.8593,-0.8583,-0.8583,-0.8583,0,-0.8777,-0.8771,-0.875,-0.8743,-0.8734,-0.8723,-0.8715,-0.8699,-0.8691,-0.8673,-0.8669,-0.8655,-0.8644,-0.8625,-0.861,-0.8597,-0.8592,-0.8594,-0.859,-0.8594,-0.8592,-0.8592,-0.8592,-0.8595,-0.8595,-0.8596,-0.8596,0,-0.8783,-0.8776,-0.8764,-0.875,-0.8741,-0.8729,-0.8717,-0.8712,-0.8694,-0.8685,-0.8673,-0.8664,-0.8646,-0.8633,-0.8618,-0.8609,-0.8599,-0.8597,-0.8597,-0.86,-0.8606,-0.8602,-0.8594,-0.8597,-0.8597,-0.8597,-0.8597,-0.8597,-0.8789,-0.8783,-0.8768,-0.8755,-0.8745,-0.8734,-0.8726,-0.8714,-0.8703,-0.8688,-0.8679,-0.8667,-0.8652,-0.8631,-0.8622,-0.8612,-0.8609,-0.8608,-0.8607,-0.8607,-0.8608,-0.8608,-0.861,-0.861,-0.861,-0.861,-0.861,0,-0.8794,-0.8784,-0.8773,-0.8756,-0.8746,-0.8739,-0.8725,-0.8718,-0.8707,-0.8694,-0.8683,-0.8669,-0.8656,-0.8641,-0.8628,-0.8623,-0.8618,-0.862,-0.862,-0.8618,-0.8612,-0.8614,-0.8624,-0.8624,-0.8624,-0.8624,-0.8624,-0.8624,-0.8796,-0.8785,-0.8776,-0.876,-0.875,-0.8737,-0.873,-0.872,-0.871,-0.8694,-0.8684,-0.8674,-0.8661,-0.8647,-0.8635,-0.8631,-0.8626,-0.8629,-0.8624,-0.8619,-0.8618,-0.8617,-0.8618,-0.8629,-0.8629,-0.863,-0.863,-0.863]}]]